Weather in Kamianske

Ukraine / Dnipropetrovsk Region     48°31′22″N   34°36′53″E
temp.,
°C
wind,
m/s
gust,
m/s
humid.,
%
clouds,
%
prec.,
mm/h
press.,
hPa
HPBL,
m
15 april, thu
thu1500:00+8s387792 0.0 1014180
03:00+8se3682100 0.0 1014215
06:00+7se4789100 0.0 1013285
09:00+8sse4789100 0.1 1014392
12:00+10sse4783100 0.2 1013651
15:00+11ssw476476 0.9 1012947
18:00+11s5765100 0.1 1012696
21:00+9s597893 0.3 1013522
16 april, fri
fri1600:00+7s5989100 0.2 1012611
03:00+7s5792100 0.4 1012551
06:00+7ssw5893100 0.2 1013442
09:00+7ssw5790100 0.3 1014510
12:00+8ssw6987100 0.1 1015806
15:00+11ssw686399 0.8 10151420
18:00+11sw566352 0.7 10151104
21:00+5wsw589010 0.8 1018309
17 april, sat
sat1700:00+5sw4680100 0.0 1018828
03:00+4sw3483100 0.1 1019464
06:00+4wsw2393100 0.1 1020477
09:00+5wsw2387100 0.1 1021496
12:00+9wnw126894 0.1 1021986
15:00+10wnw2362100 0.1 10221003
18:00+9nw2368100 0.1 1022238
21:00+8wnw117347 0.1 102219
18 april, sun
sun1800:00+6n34855 0.0 102262
03:00+4n228943 0.0 102214
06:00+4nne229073 0.0 102218
09:00+9nne226946 0.0 1022362
12:00+13ne3352100 0.0 10211247
15:00+15ne2344100 0.0 10211700
18:00+14ene3555100 0.0 1021281
21:00+12ene486467 0.0 1022313
19 april, mon
mon1900:00+9ene34775 0.0 102369
03:00+7ene37845 0.0 1023142
06:00+6ene389037 0.0 1023192
09:00+10e6968100 0.0 1024669
12:00+14e7954100 0.0 10231259
15:00+15e7847100 0.0 10211687
18:00+13e71057100 0.0 10211093
21:00+10e9156890 0.0 1020695